| time (UTC) | temp F | wind direction | speed knots | gust knots | rain 1hr in | rain 24hr in | rain mn in | humidity % | barometer mb |
| 20260504014447 | 49 | 279 | 0.0 | 0.0 | 0.00 | 0.00 | 0.00 | 64 | 1009.2 |
| 20260504013944 | 49 | 279 | 0.0 | 0.0 | 0.00 | 0.00 | 0.00 | 64 | 1009.3 |
| 20260504013443 | 50 | 279 | 0.0 | 0.0 | 0.00 | 0.00 | 0.00 | 63 | 1009.4 |
| 20260504012938 | 50 | 279 | 0.0 | 0.0 | 0.00 | 0.00 | 0.00 | 62 | 1009.3 |
| 20260504012437 | 51 | 279 | 0.0 | 0.0 | 0.00 | 0.00 | 0.00 | 58 | 1009.2 |
| 20260504011934 | 51 | 279 | 0.0 | 0.0 | 0.00 | 0.00 | 0.00 | 59 | 1009.3 |
| 20260504011431 | 52 | 279 | 0.0 | 0.0 | 0.00 | 0.00 | 0.00 | 58 | 1009.1 |
| 20260504010926 | 52 | 279 | 0.0 | 0.0 | 0.00 | 0.00 | 0.00 | 57 | 1009.2 |
| 20260504010423 | 52 | 279 | 0.0 | 0.0 | 0.00 | 0.00 | 0.00 | 56 | 1009.1 |
| 20260504005919 | 53 | 266 | 0.0 | 0.0 | 0.00 | 0.00 | 0.00 | 53 | 1009.1 |
| 20260504005415 | 53 | 304 | 0.0 | 0.0 | 0.00 | 0.00 | 0.00 | 56 | 1009.2 |
| 20260504004913 | 53 | 235 | 0.0 | 0.0 | 0.00 | 0.00 | 0.00 | 55 | 1009.2 |
| 20260504004411 | 54 | 46 | 1.7 | 1.7 | 0.00 | 0.00 | 0.00 | 52 | 1009.0 |
| 20260504003908 | 54 | 278 | 0.0 | 0.0 | 0.00 | 0.00 | 0.00 | 54 | 1009.2 |
| 20260504003404 | 55 | 274 | 0.9 | 0.9 | 0.00 | 0.00 | 0.00 | 53 | 1009.0 |
| 20260504002901 | 55 | 265 | 0.0 | 0.0 | 0.00 | 0.00 | 0.00 | 51 | 1009.0 |
| 20260504002358 | 55 | 5 | 0.0 | 0.0 | 0.00 | 0.00 | 0.00 | 51 | 1009.1 |
| 20260504001855 | 55 | 233 | 0.0 | 0.0 | 0.00 | 0.00 | 0.00 | 51 | 1009.0 |
| 20260504001353 | 55 | 332 | 0.0 | 0.0 | 0.00 | 0.00 | 0.00 | 53 | 1009.0 |
| 20260504000849 | 56 | 88 | 0.9 | 0.9 | 0.00 | 0.00 | 0.00 | 50 | 1008.9 |
| 20260504000346 | 56 | 292 | 0.0 | 0.0 | 0.00 | 0.00 | 0.00 | 50 | 1009.1 |
| 20260503235844 | 56 | 265 | 0.0 | 0.0 | 0.00 | 0.00 | 0.00 | 51 | 1009.1 |
| 20260503235341 | 56 | 274 | 0.0 | 0.0 | 0.00 | 0.00 | 0.00 | 52 | 1009.1 |
| 20260503234838 | 57 | 298 | 0.0 | 0.0 | 0.00 | 0.00 | 0.00 | 49 | 1009.1 |
| 20260503234336 | 57 | 263 | 0.0 | 0.0 | 0.00 | 0.00 | 0.00 | 49 | 1009.2 |
| 20260503233834 | 57 | 265 | 0.0 | 0.9 | 0.00 | 0.00 | 0.00 | 48 | 1009.2 |
| 20260503233330 | 57 | 265 | 0.0 | 0.0 | 0.00 | 0.00 | 0.00 | 48 | 1009.1 |
| 20260503232826 | 57 | 222 | 2.6 | 2.6 | 0.00 | 0.00 | 0.00 | 46 | 1009.1 |
| 20260503232324 | 57 | 188 | 0.9 | 0.9 | 0.00 | 0.00 | 0.00 | 47 | 1009.1 |
| 20260503231821 | 57 | 265 | 0.9 | 0.9 | 0.00 | 0.00 | 0.00 | 47 | 1009.1 |
| 20260503231318 | 57 | 262 | 0.0 | 0.0 | 0.00 | 0.00 | 0.00 | 48 | 1009.2 |
| 20260503230814 | 57 | 251 | 0.0 | 0.0 | 0.00 | 0.00 | 0.00 | 47 | 1009.0 |
| 20260503230311 | 57 | 174 | 1.7 | 1.7 | 0.00 | 0.00 | 0.00 | 47 | 1009.3 |
| 20260503225809 | 57 | 264 | 0.9 | 0.9 | 0.00 | 0.00 | 0.00 | 47 | 1009.0 |
| 20260503225305 | 57 | 261 | 2.6 | 3.5 | 0.00 | 0.00 | 0.00 | 46 | 1009.2 |
| 20260503224801 | 58 | 261 | 0.0 | 0.0 | 0.00 | 0.00 | 0.00 | 46 | 1009.1 |
| 20260503224259 | 58 | 263 | 0.0 | 0.9 | 0.00 | 0.00 | 0.00 | 44 | 1009.2 |
| 20260503223756 | 58 | 82 | 1.7 | 2.6 | 0.00 | 0.00 | 0.00 | 43 | 1009.3 |
| 20260503223254 | 58 | 292 | 0.0 | 0.0 | 0.00 | 0.00 | 0.00 | 44 | 1009.2 |
| 20260503222749 | 58 | 169 | 0.0 | 0.9 | 0.00 | 0.00 | 0.00 | 47 | 1009.4 |
| 20260503222247 | 58 | 126 | 3.5 | 6.1 | 0.00 | 0.00 | 0.00 | 46 | 1009.2 |
| 20260503221746 | 59 | 267 | 0.9 | 1.7 | 0.00 | 0.00 | 0.00 | 44 | 1009.2 |
| 20260503221243 | 59 | 306 | 0.0 | 0.0 | 0.00 | 0.00 | 0.00 | 44 | 1009.3 |
| 20260503220740 | 59 | 246 | 0.9 | 0.9 | 0.00 | 0.00 | 0.00 | 44 | 1009.4 |
| 20260503220237 | 59 | 70 | 4.3 | 6.1 | 0.00 | 0.00 | 0.00 | 44 | 1009.3 |
| 20260503215733 | 59 | 189 | 0.9 | 0.9 | 0.00 | 0.00 | 0.00 | 45 | 1009.4 |
| 20260503215230 | 59 | 235 | 1.7 | 1.7 | 0.00 | 0.00 | 0.00 | 42 | 1009.3 |
| 20260503214729 | 59 | 278 | 0.0 | 0.0 | 0.00 | 0.00 | 0.00 | 45 | 1009.3 |
| 20260503214225 | 60 | 162 | 2.6 | 2.6 | 0.00 | 0.00 | 0.00 | 42 | 1009.3 |
| 20260503213723 | 60 | 120 | 0.9 | 1.7 | 0.00 | 0.00 | 0.00 | 45 | 1009.3 |
| 20260503213220 | 60 | 200 | 0.9 | 1.7 | 0.00 | 0.00 | 0.00 | 41 | 1009.1 |
| 20260503212717 | 59 | 313 | 0.0 | 0.9 | 0.00 | 0.00 | 0.00 | 43 | 1009.1 |
| 20260503212215 | 60 | 215 | 1.7 | 1.7 | 0.00 | 0.00 | 0.00 | 41 | 1008.9 |
| 20260503211712 | 61 | 179 | 3.5 | 5.2 | 0.00 | 0.00 | 0.00 | 41 | 1009.3 |
| 20260503211208 | 60 | 150 | 1.7 | 2.6 | 0.00 | 0.00 | 0.00 | 43 | 1009.1 |
| 20260503210704 | 60 | 235 | 1.7 | 1.7 | 0.00 | 0.00 | 0.00 | 42 | 1009.1 |
| 20260503210201 | 60 | 320 | 0.9 | 0.9 | 0.00 | 0.00 | 0.00 | 39 | 1009.1 |
| 20260503205656 | 60 | 271 | 0.9 | 0.9 | 0.00 | 0.00 | 0.00 | 39 | 1009.1 |
| 20260503205152 | 61 | 211 | 1.7 | 1.7 | 0.00 | 0.00 | 0.00 | 38 | 1009.2 |
| 20260503204649 | 62 | 125 | 3.5 | 6.1 | 0.00 | 0.00 | 0.00 | 39 | 1008.9 |
| 20260503204147 | 62 | 233 | 1.7 | 1.7 | 0.00 | 0.00 | 0.00 | 38 | 1009.2 |
| 20260503203644 | 61 | 298 | 0.0 | 0.9 | 0.00 | 0.00 | 0.00 | 42 | 1009.2 |
| 20260503203142 | 60 | 187 | 1.7 | 2.6 | 0.00 | 0.00 | 0.00 | 40 | 1009.4 |
| 20260503202638 | 60 | 284 | 0.9 | 0.9 | 0.00 | 0.00 | 0.00 | 40 | 1009.3 |
| 20260503202137 | 62 | 239 | 0.9 | 1.7 | 0.00 | 0.00 | 0.00 | 40 | 1009.4 |
| 20260503201634 | 62 | 149 | 1.7 | 3.5 | 0.00 | 0.00 | 0.00 | 39 | 1009.3 |
| 20260503201131 | 61 | 305 | 2.6 | 3.5 | 0.00 | 0.00 | 0.00 | 37 | 1009.5 |
| 20260503200627 | 60 | 215 | 0.9 | 1.7 | 0.00 | 0.00 | 0.00 | 38 | 1009.6 |
| 20260503200124 | 62 | 254 | 0.0 | 1.7 | 0.00 | 0.00 | 0.00 | 38 | 1009.7 |
| 20260503195621 | 61 | 249 | 4.3 | 6.1 | 0.00 | 0.00 | 0.00 | 41 | 1009.7 |
| 20260503195118 | 61 | 246 | 4.3 | 7.0 | 0.00 | 0.00 | 0.00 | 37 | 1010.2 |
| 20260503194615 | 60 | 243 | 0.0 | 0.0 | 0.00 | 0.00 | 0.00 | 40 | 1009.9 |
| 20260503194110 | 59 | 239 | 1.7 | 1.7 | 0.00 | 0.00 | 0.00 | 40 | 1010.0 |
| 20260503193607 | 60 | 291 | 0.0 | 0.9 | 0.00 | 0.00 | 0.00 | 43 | 1010.3 |
| 20260503193102 | 60 | 178 | 2.6 | 3.5 | 0.00 | 0.00 | 0.00 | 39 | 1010.1 |
| 20260503192558 | 61 | 285 | 0.0 | 0.0 | 0.00 | 0.00 | 0.00 | 41 | 1010.3 |
| 20260503192054 | 60 | 156 | 1.7 | 2.6 | 0.00 | 0.00 | 0.00 | 40 | 1010.4 |
| 20260503191551 | 60 | 271 | 0.9 | 1.7 | 0.00 | 0.00 | 0.00 | 38 | 1010.5 |
| 20260503191048 | 61 | 211 | 1.7 | 1.7 | 0.00 | 0.00 | 0.00 | 39 | 1010.6 |
| 20260503190539 | 61 | 51 | 1.7 | 2.6 | 0.00 | 0.00 | 0.00 | 41 | 1010.6 |
| 20260503190036 | 60 | 202 | 3.5 | 5.2 | 0.00 | 0.00 | 0.00 | 42 | 1010.7 |
| 20260503185532 | 60 | 137 | 0.9 | 1.7 | 0.00 | 0.00 | 0.00 | 44 | 1010.7 |
| 20260503185027 | 60 | 279 | 0.9 | 1.7 | 0.00 | 0.00 | 0.00 | 44 | 1010.7 |
| 20260503184523 | 60 | 272 | 0.9 | 0.9 | 0.00 | 0.00 | 0.00 | 45 | 1011.0 |
| 20260503184020 | 61 | 255 | 2.6 | 3.5 | 0.00 | 0.00 | 0.00 | 44 | 1011.0 |
| 20260503183516 | 58 | 75 | 1.7 | 2.6 | 0.00 | 0.00 | 0.00 | 45 | 1011.1 |
| 20260503183014 | 59 | 190 | 0.9 | 1.7 | 0.00 | 0.00 | 0.00 | 44 | 1010.8 |
| 20260503182512 | 59 | 120 | 0.9 | 1.7 | 0.00 | 0.00 | 0.00 | 47 | 1011.3 |
| 20260503182009 | 60 | 287 | 1.7 | 1.7 | 0.00 | 0.00 | 0.00 | 44 | 1011.2 |
| 20260503181507 | 60 | 243 | 1.7 | 2.6 | 0.00 | 0.00 | 0.00 | 41 | 1011.1 |
| 20260503181003 | 61 | 239 | 0.9 | 0.9 | 0.00 | 0.00 | 0.00 | 43 | 1011.2 |
| 20260503180500 | 61 | 168 | 3.5 | 5.2 | 0.00 | 0.00 | 0.00 | 45 | 1011.2 |
| 20260503175957 | 59 | 239 | 1.7 | 2.6 | 0.00 | 0.00 | 0.00 | 42 | 1011.3 |
| 20260503175455 | 60 | 238 | 1.7 | 3.5 | 0.00 | 0.00 | 0.00 | 43 | 1011.6 |
| 20260503174951 | 60 | 246 | 1.7 | 2.6 | 0.00 | 0.00 | 0.00 | 45 | 1011.6 |
| 20260503174449 | 59 | 243 | 1.7 | 1.7 | 0.00 | 0.00 | 0.00 | 43 | 1011.6 |
| 20260503173944 | 59 | 270 | 0.9 | 1.7 | 0.00 | 0.00 | 0.00 | 44 | 1011.5 |
| 20260503173440 | 59 | 324 | 1.7 | 1.7 | 0.00 | 0.00 | 0.00 | 43 | 1011.6 |
| 20260503172937 | 60 | 261 | 2.6 | 5.2 | 0.00 | 0.00 | 0.00 | 42 | 1011.7 |
| 20260503172434 | 59 | 23 | 0.0 | 0.9 | 0.00 | 0.00 | 0.00 | 44 | 1011.6 |
| 20260503171931 | 59 | 233 | 1.7 | 2.6 | 0.00 | 0.00 | 0.00 | 46 | 1011.9 |
| 20260503171427 | 59 | 190 | 1.7 | 2.6 | 0.00 | 0.00 | 0.00 | 47 | 1011.7 |
| 20260503170925 | 59 | 71 | 0.9 | 1.7 | 0.00 | 0.00 | 0.00 | 46 | 1011.8 |
| 20260503170421 | 59 | 283 | 1.7 | 1.7 | 0.00 | 0.00 | 0.00 | 42 | 1012.0 |
| 20260503150814 | 54 | 350 | 0.9 | 0.9 | 0.00 | 0.00 | 0.00 | 46 | 1013.0 |
| 20260503150309 | 54 | 114 | 1.7 | 1.7 | 0.00 | 0.00 | 0.00 | 50 | 1012.9 |
| 20260503140234 | 51 | 276 | 0.9 | 0.9 | 0.00 | 0.00 | 0.00 | 52 | 1013.1 |
| 20260503131204 | 48 | 273 | 0.0 | 0.0 | 0.00 | 0.00 | 0.00 | 60 | 1013.5 |
| 20260503130701 | 48 | 307 | 0.0 | 0.9 | 0.00 | 0.00 | 0.00 | 61 | 1013.4 |
| 20260503130158 | 47 | 312 | 0.9 | 0.9 | 0.00 | 0.00 | 0.00 | 59 | 1013.5 |
| 20260503120124 | 42 | 319 | 0.0 | 0.9 | 0.00 | 0.00 | 0.00 | 77 | 1013.0 |
| 20260503110551 | 32 | 358 | 0.0 | 0.0 | 0.00 | 0.00 | 0.00 | 99 | 1012.9 |
| 20260503090438 | 31 | 304 | 0.0 | 0.0 | 0.00 | 0.00 | 0.00 | 99 | 1012.5 |
| 20260503081405 | 31 | 306 | 0.0 | 0.0 | 0.00 | 0.00 | 0.00 | 99 | 1012.3 |
| 20260503080902 | 31 | 307 | 0.0 | 0.0 | 0.00 | 0.00 | 0.00 | 99 | 1012.6 |
| 20260503080358 | 31 | 307 | 0.0 | 0.0 | 0.00 | 0.00 | 0.00 | 99 | 1012.7 |
| 20260503072835 | 32 | 307 | 0.0 | 0.0 | 0.00 | 0.00 | 0.00 | 98 | 1012.8 |
| 20260503072332 | 32 | 307 | 0.0 | 0.0 | 0.00 | 0.00 | 0.00 | 98 | 1012.5 |
| 20260503071828 | 32 | 307 | 0.0 | 0.0 | 0.00 | 0.00 | 0.00 | 98 | 1012.6 |
| 20260503071325 | 32 | 307 | 0.0 | 0.0 | 0.00 | 0.00 | 0.00 | 98 | 1012.5 |
| 20260503070821 | 32 | 307 | 0.0 | 0.0 | 0.00 | 0.00 | 0.00 | 98 | 1012.6 |
| 20260503070320 | 32 | 307 | 0.0 | 0.0 | 0.00 | 0.00 | 0.00 | 97 | 1012.5 |
| 20260503060238 | 35 | 307 | 0.0 | 0.0 | 0.00 | 0.00 | 0.00 | 95 | 1012.9 |
| 20260503054726 | 35 | 307 | 0.0 | 0.0 | 0.00 | 0.00 | 0.00 | 94 | 1013.0 |
| 20260503054223 | 36 | 307 | 0.0 | 0.0 | 0.00 | 0.00 | 0.00 | 94 | 1012.8 |
| 20260503053720 | 35 | 307 | 0.0 | 0.0 | 0.00 | 0.00 | 0.00 | 93 | 1013.0 |
| 20260503053219 | 36 | 307 | 0.0 | 0.0 | 0.00 | 0.00 | 0.00 | 93 | 1012.8 |
| 20260503052715 | 36 | 307 | 0.0 | 0.0 | 0.00 | 0.00 | 0.00 | 92 | 1012.7 |
| 20260503052212 | 36 | 307 | 0.0 | 0.0 | 0.00 | 0.00 | 0.00 | 92 | 1012.9 |
| 20260503051707 | 36 | 307 | 0.0 | 0.0 | 0.00 | 0.00 | 0.00 | 92 | 1012.7 |
| 20260503051205 | 36 | 307 | 0.0 | 0.0 | 0.00 | 0.00 | 0.00 | 92 | 1012.8 |
| 20260503050701 | 36 | 307 | 0.0 | 0.0 | 0.00 | 0.00 | 0.00 | 92 | 1012.8 |
| 20260503050158 | 36 | 307 | 0.0 | 0.0 | 0.00 | 0.00 | 0.00 | 92 | 1012.9 |
| 20260503045655 | 36 | 307 | 0.0 | 0.0 | 0.00 | 0.00 | 0.00 | 92 | 1013.1 |
| 20260503045153 | 36 | 307 | 0.0 | 0.0 | 0.00 | 0.00 | 0.00 | 91 | 1013.0 |
| 20260503044649 | 36 | 307 | 0.0 | 0.0 | 0.00 | 0.00 | 0.00 | 91 | 1012.9 |
| 20260503044147 | 36 | 307 | 0.0 | 0.0 | 0.00 | 0.00 | 0.00 | 91 | 1012.9 |
| 20260503043643 | 36 | 307 | 0.0 | 0.0 | 0.00 | 0.00 | 0.00 | 91 | 1013.1 |
| 20260503043140 | 36 | 307 | 0.0 | 0.0 | 0.00 | 0.00 | 0.00 | 91 | 1013.1 |
| 20260503042636 | 37 | 307 | 0.0 | 0.0 | 0.00 | 0.00 | 0.00 | 91 | 1013.2 |
| 20260503042132 | 37 | 307 | 0.0 | 0.0 | 0.00 | 0.00 | 0.00 | 90 | 1013.2 |
| 20260503041629 | 37 | 307 | 0.0 | 0.0 | 0.00 | 0.00 | 0.00 | 90 | 1013.0 |
| 20260503041127 | 36 | 307 | 0.0 | 0.0 | 0.00 | 0.00 | 0.00 | 89 | 1013.0 |
| 20260503040624 | 37 | 307 | 0.0 | 0.0 | 0.00 | 0.00 | 0.00 | 89 | 1013.1 |
| 20260503040122 | 37 | 307 | 0.0 | 0.0 | 0.00 | 0.00 | 0.00 | 89 | 1013.1 |
| 20260503035618 | 37 | 307 | 0.0 | 0.0 | 0.00 | 0.07 | 0.07 | 88 | 1013.0 |
| 20260503035116 | 37 | 307 | 0.0 | 0.0 | 0.00 | 0.07 | 0.07 | 88 | 1013.2 |
| 20260503034613 | 37 | 307 | 0.0 | 0.0 | 0.00 | 0.07 | 0.07 | 88 | 1013.2 |
| 20260503034110 | 37 | 307 | 0.0 | 0.0 | 0.00 | 0.07 | 0.07 | 89 | 1013.1 |
| 20260503033607 | 37 | 307 | 0.0 | 0.0 | 0.00 | 0.07 | 0.07 | 88 | 1013.1 |
| 20260503033105 | 37 | 307 | 0.0 | 0.0 | 0.00 | 0.07 | 0.07 | 87 | 1013.3 |
| 20260503032603 | 37 | 307 | 0.0 | 0.0 | 0.00 | 0.07 | 0.07 | 86 | 1013.3 |
| 20260503032101 | 37 | 307 | 0.0 | 0.0 | 0.00 | 0.07 | 0.07 | 85 | 1013.1 |
| 20260503031558 | 37 | 307 | 0.0 | 0.0 | 0.00 | 0.07 | 0.07 | 84 | 1013.2 |
| 20260503031055 | 37 | 307 | 0.0 | 0.0 | 0.00 | 0.07 | 0.07 | 84 | 1013.3 |
| 20260503030551 | 37 | 307 | 0.0 | 0.0 | 0.00 | 0.07 | 0.07 | 85 | 1013.2 |
| 20260503030049 | 37 | 307 | 0.0 | 0.0 | 0.00 | 0.07 | 0.07 | 84 | 1013.2 |
| 20260503025545 | 37 | 307 | 0.0 | 0.0 | 0.00 | 0.07 | 0.07 | 84 | 1013.3 |
| 20260503025043 | 37 | 307 | 0.0 | 0.0 | 0.00 | 0.07 | 0.07 | 83 | 1013.3 |
| 20260503024539 | 37 | 307 | 0.0 | 0.0 | 0.00 | 0.07 | 0.07 | 84 | 1013.2 |
| 20260503024037 | 37 | 307 | 0.0 | 0.0 | 0.00 | 0.07 | 0.07 | 84 | 1013.3 |
| 20260503023533 | 37 | 307 | 0.0 | 0.0 | 0.00 | 0.07 | 0.07 | 84 | 1013.5 |
| 20260503023031 | 37 | 307 | 0.0 | 0.0 | 0.00 | 0.07 | 0.07 | 84 | 1013.4 |
| 20260503022526 | 37 | 307 | 0.0 | 0.0 | 0.00 | 0.07 | 0.07 | 83 | 1013.6 |
| 20260503022021 | 38 | 307 | 0.0 | 0.0 | 0.00 | 0.07 | 0.07 | 84 | 1013.6 |
| 20260503021518 | 38 | 307 | 0.0 | 0.0 | 0.00 | 0.07 | 0.07 | 83 | 1013.4 |
| 20260503021015 | 38 | 307 | 0.0 | 0.0 | 0.00 | 0.07 | 0.07 | 82 | 1013.4 |
| 20260503020512 | 38 | 307 | 0.0 | 0.0 | 0.00 | 0.07 | 0.07 | 82 | 1013.5 |
| 20260503020009 | 38 | 307 | 0.0 | 0.0 | 0.00 | 0.07 | 0.07 | 81 | 1013.5 |
| 20260503015506 | 38 | 307 | 0.0 | 0.0 | 0.00 | 0.07 | 0.07 | 81 | 1013.2 |
| 20260503015003 | 38 | 307 | 0.0 | 0.0 | 0.00 | 0.07 | 0.07 | 80 | 1013.5 |